Retour au catalogue

JILIN-01 GAOFEN 3H

ActifScienceSSO
NORAD 46460·PAYLOAD·🇨🇳 China

Lancé Sep 15, 2020 depuis Yellow Sea Launch Area

Loading…

Prochains Passages (prochaines 24 heures)

TLE

FraisSource: Space-Track

Époque: Sep 14, 2026, 13:50 UTC

1 46460U 20065G   26257.57659459  .00199083  00000-0  73229-3 0  9991
2 46460  97.2017 314.2682 0000583 306.4050  53.7168 15.87759905333968

Suivez JILIN-01 GAOFEN 3H en temps réel avec AllMySat

Download on the App Store